USA 24

Satellite information

Favourite Embed

Satellite Type and Status

PAYLOADIN ORBIT

Key statistics

Satellite USA 24 at a glance.

Uptime

13934

Days in orbit

Revolutions

≈ 13.8

Per day

Orbit

LEO

Low Earth Orbit

Inclination

63.3

Latest

Satellite identification and parameters

Extended collection of information and parameters for USA 24.

Object identification

Identified? True

Debris? False

Object name: USA 24

International designator: 1987-043F

Object number (NORAD): 18010

Object ID (CCSDS): 18010

Country: UNITED STATES OF AMERICA (US)

Current information (Y/N): Y

RCS size: LARGE

Orbital parameters

Period: 104.408 minutes

Inclination: 63.2948 deg

SMA: 7344.862 km

Apoapsis: 1572.742 km

Periapsis: 360.712 km

RAAN: 238.0909 deg

Eccentricy: 0.0825087

Argument of periapsis: 98.1438 deg

Mean anomaly: 271.3944 deg

Mean motion: 13.79200086 rev/day

Mean motion (dot): 0.00006398 rev/day2

B* drag term: 0.00037288 1/REarth

Two-line elements (TLE)

Creation date: July 8, 2025, 2:27 a.m.

Reference frame: TEME

Reference center: EARTH

Epoch: July 7, 2025, 8:28 p.m. UTC

TLE line 0: 0 USA 24

TLE line 1: 1 18010U 87043F 25188.85330700 .00006398 00000-0 37288-3 0 9999

TLE line 2: 2 18010 63.2948 238.0909 0825087 98.1438 271.3944 13.79200086297833

Live tracking on map

Real-time ground track for satellite USA 24.

In-orbit conjunctions

There are no conjunctions computed for USA 24, at the moment. Check back to stay up to date, as we update our databases every day.

Go to all conjunctions

Associated space launch

The Parcae satellites were passive ELINT satellites. MSD satellites were dispensers of triplets of ocean surveillance satellites.

USA 24 was lifted into orbit during the mission ‘Atlas H | Parcae 9A,B,C & MSD 9’, on board a Atlas H space rocket.

The launch took place on May 15, 1987, 3:45 p.m. from Space Launch Complex 3E.

For more information about the launch, click the button.

Launch to space Atlas H | Parcae 9A,B,C & MSD 9
Atlas H | Parcae 9A,B,C & MSD 9

Agency: N/A

Status: Launch Successful

Launch date: May 15, 1987, 3:45 p.m. UTC

Rocket: Atlas H

Launch pad: Space Launch Complex 3E

Location: Vandenberg SFB, CA, USA

...

Latest news about this satellite

There are no fresh news available about this satellite. Check back as we update our databases every day.


Newsletter sign-up

Weekly statistics, charts and insights to help you stay on top of the space industry.